Regional Weather Roundup
Issued by NWS

Home | Current Version | Previous Version | Graphics & Text | Print | Product List | Glossary On
Versions: 1 2 3 4 5 6 7 8 9 10 11 12 13 14 15 16 17 18 19 20 21 22 23 24 25 26 27 28 29 30 31 32 33 34 35 36 37 38 39 40 41 42 43 44 45 46 47 48 49 50
000
ASUS43 KBIS 272320
RWRND

NORTH DAKOTA REGIONAL WEATHER ROUNDUP
NATIONAL WEATHER SERVICE BISMARCK ND
600 PM CDT SUN JUL 27 2014

NOTE: "FAIR" INDICATES FEW OR NO CLOUDS BELOW 12,000 FEET WITH NO
SIGNIFICANT WEATHER AND/OR OBSTRUCTIONS TO VISIBILITY.


NDZ001>003-009>011-017-280000-
NORTHWEST NORTH DAKOTA

CITY           SKY/WX    TMP DP  RH WIND       PRES   REMARKS
WILLISTON      MOSUNNY   75  51  43 NE8       30.29S
MINOT          PTSUNNY   68  50  52 NW8       30.27S
MINOT AFB      MOSUNNY   68  51  54 NW8       30.27S
$$

NDZ018>021-031>035-040>046-280000-
SOUTHWEST NORTH DAKOTA

CITY           SKY/WX    TMP DP  RH WIND       PRES   REMARKS
BISMARCK       PTSUNNY   70  50  49 NW12G20   30.27F
DICKINSON      MOSUNNY   71  50  47 N7        30.29R
GARRISON         N/A     69  51  52 N10       30.28S
HETTINGER ARPT SUNNY     72  53  51 N9        30.29F
$$

NDZ004>008-012>016-024-026-027-054-280000-
NORTHEAST NORTH DAKOTA

CITY           SKY/WX    TMP DP  RH WIND       PRES   REMARKS
GRAND FORKS    CLOUDY    68  57  68 N12       30.17R
GRND FRKS AFB  CLOUDY    68  58  70 N13       30.19R
DEVILS LAKE    CLOUDY    64  52  63 N10       30.22S
$$

NDZ022-023-025-028>030-036>039-047>053-280000-
SOUTHEAST NORTH DAKOTA

CITY           SKY/WX    TMP DP  RH WIND       PRES   REMARKS
FARGO          CLOUDY    67  57  70 N16       30.16R
JAMESTOWN      CLOUDY    66  54  65 N10       30.23R
$$



USA.gov is the U.S. government's official web portal to all federal, state and local government web resources and services.